Weather History for Chillicothe, MO

Change the Weather History Date:

Tuesday, August 27, 2013

  Actual Average (KIRK) Record (KIRK)
Temperature  
Mean Temperature 84 °F 72 °F  
Max Temperature 97 °F 83 °F 102 °F (1936)
Min Temperature 71 °F 61 °F 47 °F (1967)
Degree Days  
Heating Degree Days 0 0  
Month to date heating degree days 0  
Since 1 June heating degree days 17  
Since 1 July heating degree days 1  
Cooling Degree Days 18 7  
Month to date cooling degree days 249  
Year to date cooling degree days 816  
Since 1 June cooling degree days 754  
Growing Degree Days 34 (Base 50)    
Moisture  
Dew Point 66 °F    
Average Humidity 61    
Maximum Humidity 87    
Minimum Humidity 33    
Precipitation  
Precipitation 0.00 in 0.15 in 1.87 in (1978)
Month to date precipitation 3.20  
Year to date precipitation 26.79  
Sea Level Pressure  
Sea Level Pressure 29.98 in    
Wind  
Wind Speed 5 mph (SSW)    
Max Wind Speed 12 mph    
Max Gust Speed 20 mph    
T = Trace of Precipitation, MM = Missing Value Source: NWS Daily Summary

Daily Weather History Graph

Daily Weather History Graph

Search for Another Location

Airport:

Trip Planner

Search our weather history database for the weather conditions in past years. The results will help you decide how hot, cold, wet, or windy it might be!

Date:

Astronomy

Aug. 27, 2013 Rise Set
Actual Time 6:37 AM CDT 7:52 PM CDT
Civil Twilight 6:09 AM CDT 8:20 PM CDT
Nautical Twilight 5:36 AM CDT 8:54 PM CDT
Astronomical Twilight 5:01 AM CDT 9:29 PM CDT
Moon 11:47 PM CDT (8/27) 1:35 PM CDT (8/27)
Length of Visible Light 14h 11m
Length of Day
13h 15m
Waning Gibbous, 57% of the Moon is Illuminated
Aug 27
Waning Gibbous
Aug 28
Last Quarter
Sep 5
New
Sep 12
First Quarter
Sep 19
Full

Hourly Weather History & Observations

Time (CDT) Temp. Heat Index Dew Point Humidity Pressure Visibility Wind Dir Wind Speed Gust Speed Precip Events Conditions
12:52 AM 75.0 °F - 70.0 °F 84% 30.01 in - SSE 3.5 mph - N/A   Unknown
1:52 AM 75.0 °F - 70.0 °F 84% 30.01 in - South 3.5 mph - N/A   Unknown
2:52 AM 73.9 °F - 69.1 °F 85% 30.00 in - South 4.6 mph - N/A   Unknown
3:52 AM 73.0 °F - 69.1 °F 87% 30.00 in - South 4.6 mph - N/A   Unknown
4:52 AM 73.9 °F - 68.0 °F 82% 29.99 in - SSW 3.5 mph - N/A   Unknown
5:52 AM 72.0 °F - 68.0 °F 87% 30.00 in - South 3.5 mph - N/A   Unknown
6:52 AM 71.1 °F - 66.9 °F 87% 30.02 in - Calm Calm - N/A   Unknown
7:52 AM 75.0 °F - 69.1 °F 82% 30.03 in - South 3.5 mph - N/A   Unknown
8:52 AM 79.0 °F - 68.0 °F 69% 30.03 in - Variable 5.8 mph - N/A   Unknown
9:52 AM 84.9 °F 88.2 °F 68.0 °F 57% 30.02 in - Variable 5.8 mph - N/A   Unknown
10:52 AM 89.1 °F 92.1 °F 66.9 °F 48% 30.01 in - SW 6.9 mph - N/A   Unknown
11:52 AM 91.9 °F 94.5 °F 66.0 °F 42% 30.00 in - SW 10.4 mph 19.6 mph N/A   Unknown
12:52 PM 93.9 °F 96.1 °F 64.9 °F 38% 29.98 in - SSW 10.4 mph - N/A   Unknown
1:52 PM 95.0 °F 97.0 °F 64.0 °F 36% 29.96 in - South 11.5 mph 17.3 mph N/A   Unknown
2:52 PM 96.1 °F 98.3 °F 64.0 °F 35% 29.94 in - SSW 10.4 mph - N/A   Unknown
3:52 PM 96.1 °F 97.3 °F 63.0 °F 33% 29.93 in - SW 9.2 mph - N/A   Unknown
4:52 PM 96.1 °F 97.3 °F 63.0 °F 33% 29.92 in - SW 8.1 mph - N/A   Unknown
5:52 PM 93.9 °F 94.8 °F 62.1 °F 35% 29.93 in - SW 6.9 mph - N/A   Unknown
6:52 PM 91.9 °F 93.3 °F 64.0 °F 39% 29.93 in - SSW 4.6 mph - N/A   Unknown
7:52 PM 84.0 °F 86.3 °F 66.0 °F 55% 29.93 in - South 4.6 mph - N/A   Unknown
8:52 PM 82.0 °F 84.1 °F 66.0 °F 58% 29.94 in - South 4.6 mph - N/A   Unknown
9:52 PM 79.0 °F - 66.0 °F 64% 29.95 in - SSW 3.5 mph - N/A   Unknown
10:52 PM 78.1 °F - 66.0 °F 66% 29.95 in - South 3.5 mph - N/A   Unknown
11:52 PM 73.9 °F - 66.0 °F 76% 29.96 in - South 3.5 mph - N/A   Unknown